Probability
0 0 0 0 0 0 0 0 0 0 1 3 5 4 3 3 4 6 7 7 7 9 10 9 7 7 7 5 3 3 3 3 3 2 2 1 0 0 0 0 0 0 0 0
0 0 0 0 0 0 0 0 0 0 1 3 5 4 2 1 2 4 5 6 7 8 9 8 7 7 6 4 3 3 3 2 2 1 1 0 0 0 0 0 0 0 0 0
0 0 0 0 0 0 0 0 0 1 1 2 4 2 0 0 2 3 4 4 6 8 7 6 7 7 5 3 3 3 1 1 1 0 0 0 0 0 0 0 0 0 0 0
0 0 0 0 0 0 0 0 1 2 2 3 2 1 0 1 2 3 3 3 5 8 8 7 7 6 4 3 3 2 1 0 0 0 0 0 0 0 0 0 0 0 0 0
0 0 0 0 1 0 0 0 1 2 3 2 1 0 0 0 1 2 2 2 4 7 8 8 6 5 3 2 2 1 0 0 0 0 0 0 0 0 0 0 0 0 0 0
0 0 0 0 1 0 0 0 1 2 1 1 0 0 0 0 1 1 1 2 3 5 6 7 5 3 1 1 1 0 0 0 0 0 0 0 0 0 0 0 0 0 0 0
0 0 0 1 1 0 0 0 1 2 1 0 1 1 1 1 2 2 2 3 3 3 5 5 4 1 0 0 0 0 0 0 0 0 0 0 0 0 0 0 0 0 0 0
0 0 1 1 1 1 1 1 1 1 0 1 2 2 1 1 1 2 2 3 3 3 4 3 2 0 0 0 0 0 0 0 0 0 0 0 0 0 0 0 0 0 0 0
0 0 1 1 1 1 2 2 1 1 1 1 2 1 0 0 0 0 1 2 3 3 3 2 1 0 0 0 0 0 0 0 0 0 0 0 0 0 0 0 0 0 0 0
0 0 0 0 0 1 1 1 1 1 1 1 1 0 0 0 0 0 0 1 2 2 1 1 0 0 0 0 0 0 0 0 0 0 0 0 0 0 0 0 0 0 0 0
0 0 0 0 0 0 0 0 0 0 0 0 0 0 0 0 0 0 0 0 1 1 0 0 0 0 0 0 0 0 0 0 0 0 0 0 0 0 0 0 0 0 0 0
0 0 0 0 0 0 0 0 0 0 0 0 0 0 0 0 0 0 0 0 0 0 0 0 0 0 0 0 0 0 0 0 0 0 0 0 0 0 0 0 0 0 0 0
0 0 0 0 0 0 0 0 0 0 0 0 0 0 0 0 0 0 0 0 0 0 0 0 0 0 0 0 0 0 0 0 0 0 0 0 0 0 0 0 0 0 0 0
0 0 0 0 0 0 0 0 0 0 0 0 0 0 0 0 0 0 0 0 0 0 0 0 0 0 0 0 0 0 0 0 0 0 0 0 0 0 0 0 0 0 0 0
0 0 0 0 0 0 0 0 0 0 0 0 0 0 0 0 0 0 0 0 0 0 0 0 0 0 0 0 0 0 0 0 0 0 0 0 0 0 0 0 0 0 0 0
0 0 0 0 0 0 0 0 0 0 0 0 0 0 0 0 0 0 0 0 0 0 0 0 0 0 0 0 0 0 0 0 0 0 0 0 0 0 0 0 0 0 0 0
0 0 0 0 0 0 0 0 0 0 0 0 0 0 0 0 0 0 0 0 0 0 0 0 0 0 0 0 0 0 0 0 0 0 0 0 0 0 0 0 0 0 0 0
0 0 0 0 0 0 0 0 0 0 0 0 0 0 0 0 0 0 0 0 0 0 0 0 0 0 0 0 0 0 0 0 0 0 0 0 0 0 0 0 0 0 0 0
0 0 0 0 0 0 0 0 0 0 0 0 0 0 0 0 0 0 0 0 0 0 0 0 0 0 0 0 0 0 0 0 0 0 0 0 0 0 0 0 0 0 0 0
0 0 0 0 0 0 0 0 0 0 0 0 0 0 0 0 0 0 0 0 0 0 0 0 0 0 0 0 0 0 0 0 0 0 0 0 0 0 0 0 0 0 0 0
0 0 0 0 0 0 0 0 0 0 0 0 0 0 0 0 0 0 0 0 0 0 0 0 0 0 0 0 0 0 0 0 0 0 0 0 0 0 0 0 0 0 0 0
0 0 0 0 0 0 0 0 0 0 0 0 0 0 0 0 0 0 0 0 0 0 0 0 0 0 0 0 0 0 0 0 0 0 0 0 0 0 0 0 0 0 0 0
0 0 0 0 0 0 0 0 0 0 0 0 0 0 0 0 0 0 0 0 0 0 0 0 0 0 0 0 0 0 0 0 0 0 0 0 0 0 0 0 0 0 0 0
0 0 0 0 0 0 0 0 0 0 0 0 0 0 0 0 0 0 0 0 0 0 0 0 0 0 0 0 0 0 0 0 0 0 0 0 0 0 0 0 0 0 0 0
0 0 0 0 0 0 0 0 0 0 0 0 0 0 0 0 0 0 0 0 0 0 0 0 0 0 0 0 0 0 0 0 0 0 0 0 0 0 0 0 0 0 0 0
0 1 1 0 0 0 0 0 0 0 0 0 0 0 0 0 0 0 0 0 0 0 0 0 0 0 0 0 0 0 0 0 0 0 0 0 0 0 0 0 0 0 0 0
1 2 2 1 0 0 0 0 0 0 0 0 0 0 0 0 0 0 0 0 0 0 0 0 0 0 0 0 0 0 0 0 0 0 0 0 0 0 0 0 0 0 0 0
Wind_Speed
8 7 8 8 8 9 10 11 11 9 7 4 3 5 6 6 7 8 9 9 9 9 8 8 8 7 7 6 6 5 4 4 3 2 2 1 0 1 1 2 2 3 3 3
8 8 8 9 9 9 10 10 10 9 6 1 4 5 6 7 7 8 8 9 9 8 8 8 8 8 7 7 6 5 4 3 2 2 2 1 0 0 1 2 2 2 3 3
8 6 8 9 7 8 7 6 7 8 2 4 5 6 6 7 8 8 7 8 8 8 8 8 8 7 7 6 6 5 4 3 3 3 2 1 1 0 1 1 2 2 3 3
7 7 10 2 0 4 5 5 4 3 1 3 4 5 5 5 6 6 7 7 7 7 7 7 8 7 7 6 6 5 4 4 3 3 2 1 1 0 1 1 2 2 2 3
6 8 7 3 3 4 5 4 3 3 3 5 7 6 5 5 5 6 7 6 6 6 7 7 8 8 7 6 5 5 4 4 3 3 2 2 1 1 1 1 2 2 2 2
7 8 7 1 2 1 5 5 4 4 5 7 7 5 5 7 6 6 7 6 7 6 7 7 7 7 7 6 6 5 4 3 2 2 2 1 1 1 1 2 2 3 2 2
9 8 4 1 2 4 6 2 5 4 5 7 5 1 7 8 7 7 7 8 8 8 7 7 7 7 7 6 5 4 3 3 2 2 1 1 1 2 2 3 3 3 3 3
7 8 2 3 4 4 2 3 4 5 6 6 5 7 9 9 9 9 8 8 8 7 6 6 7 7 6 6 4 4 3 3 2 2 1 0 1 2 3 3 3 3 3 3
3 2 3 1 1 2 2 2 3 4 6 7 8 8 9 9 9 9 8 8 7 7 7 6 6 6 6 5 4 4 4 3 2 2 1 1 2 3 3 3 3 3 2 3
4 2 2 2 2 1 1 2 4 5 6 7 8 9 9 9 9 8 8 8 7 7 7 6 6 6 5 5 4 4 4 3 3 3 3 2 3 3 3 3 3 3 3 3
5 3 3 4 3 3 3 4 5 6 6 7 8 9 9 9 8 8 7 7 7 7 6 7 6 6 5 5 5 5 4 3 3 3 2 2 2 2 4 3 3 5 5 5
4 3 3 3 4 4 5 5 6 7 6 7 7 9 9 8 8 8 8 7 7 7 6 6 6 6 5 5 5 4 4 4 4 3 2 3 2 2 3 5 4 6 8 8
2 2 2 5 5 5 5 6 6 6 6 7 7 8 8 8 7 8 8 8 7 7 6 6 5 5 5 5 5 5 4 4 3 3 3 3 3 3 3 4 8 10 11 11
5 6 6 6 6 6 7 7 7 7 7 7 8 8 8 8 8 8 7 7 7 7 6 6 6 5 5 5 5 5 5 4 4 4 4 3 4 4 4 4 4 4 7 12
7 6 6 7 8 8 8 8 8 8 8 8 8 8 8 8 8 7 7 7 7 7 6 6 6 5 5 5 6 5 5 4 4 3 4 4 4 5 5 5 5 5 5 4
8 8 9 10 9 9 9 8 8 8 8 8 8 8 8 8 7 7 7 7 7 7 6 5 5 5 5 5 5 5 5 4 5 5 5 5 5 5 5 5 5 5 5 5
11 11 11 11 10 10 9 8 8 8 9 8 8 8 8 8 7 7 7 7 6 6 5 5 5 5 5 6 6 5 5 5 7 7 6 5 5 5 6 6 6 5 6 4
10 10 10 10 10 10 9 8 8 9 9 9 9 8 8 8 7 7 6 6 6 6 6 6 6 6 6 6 5 5 4 4 5 5 4 4 5 6 6 6 7 7 6 4
10 10 10 10 10 9 8 8 8 8 8 9 9 8 8 7 7 7 6 7 7 6 6 5 5 6 6 5 5 6 6 6 5 5 5 5 6 7 7 7 7 6 6 6
10 11 11 11 10 9 8 8 8 8 8 8 8 8 8 7 7 7 6 6 5 4 4 4 6 7 7 6 7 7 6 6 6 6 6 6 6 6 6 6 7 6 6 6
11 12 12 11 10 10 9 8 8 8 8 8 8 8 7 7 7 6 6 5 5 5 5 5 5 5 6 4 6 7 6 6 6 6 6 6 6 6 6 6 6 6 6 6
11 10 11 11 10 9 8 8 8 8 8 8 8 8 7 7 7 7 7 4 4 4 5 5 5 4 3 4 6 6 6 6 5 5 5 5 6 6 6 7 6 6 6 6
9 10 10 10 10 9 8 8 8 8 8 8 8 8 7 6 5 5 5 4 4 5 5 4 2 4 4 7 6 6 6 5 5 5 5 6 6 6 6 6 6 6 7 7
9 9 9 9 9 9 9 8 8 7 7 7 7 7 7 6 5 5 3 4 4 4 5 3 5 6 7 7 6 6 5 5 5 5 5 5 5 5 5 5 6 6 6 8
9 9 9 9 9 8 8 8 8 8 8 6 7 8 7 5 4 4 3 4 5 6 5 5 8 8 8 6 6 5 5 4 4 5 5 5 5 5 5 6 6 6 7 7
9 8 7 7 6 6 7 7 6 6 6 6 6 6 6 5 5 4 4 5 6 6 5 4 5 7 7 6 6 5 5 4 4 5 5 6 6 6 6 6 8 7 7 7
9 7 7 7 7 7 7 7 6 6 6 5 5 5 6 5 5 5 5 4 4 5 5 4 4 5 5 5 5 4 4 4 4 4 5 5 5 5 5 7 7 7 7 7
Wind_Direction
267 273 270 264 258 251 252 265 274 281 285 278 199 172 165 162 160 160 162 167 169 170 168 168 168 166 167 160 160 163 166 165 156 153 150 142 76 26 8 351 356 2 356 354
255 250 253 258 257 252 254 261 264 269 276 12 130 151 161 168 173 175 172 171 170 171 169 173 172 170 167 163 166 172 177 168 153 163 165 156 184 353 355 354 356 357 354 352
258 251 250 243 247 249 248 257 267 271 293 134 159 166 170 175 182 181 172 169 170 169 172 174 172 169 168 168 169 172 173 172 169 182 180 184 241 318 357 343 339 346 350 348
259 247 248 259 306 258 252 253 262 274 124 161 154 147 152 165 171 167 162 164 163 166 168 169 167 166 167 168 173 175 176 178 182 189 188 200 228 293 329 325 322 336 337 343
253 251 255 219 202 227 246 248 230 206 160 149 138 147 152 159 168 163 160 158 158 164 163 163 165 166 169 172 177 181 181 181 187 195 193 208 228 285 302 302 301 302 311 326
248 256 259 233 129 208 251 228 159 174 167 159 169 196 148 155 162 154 151 154 155 158 158 160 163 167 172 175 179 184 183 181 191 205 212 221 250 280 297 288 285 291 321 320
249 254 256 53 144 205 241 77 130 165 167 170 183 70 121 145 151 147 149 152 155 159 162 163 165 171 176 179 180 180 177 176 184 195 208 217 261 280 285 290 303 303 308 300
242 250 236 117 194 234 30 85 141 153 158 157 130 118 132 141 144 147 150 153 156 159 159 162 169 176 178 178 174 172 174 174 168 181 228 182 259 274 279 285 272 269 277 282
280 326 56 152 76 59 75 129 138 144 149 149 140 139 140 142 143 146 149 152 158 160 158 162 170 180 179 171 170 171 177 176 176 194 227 254 263 262 262 261 273 285 288 291
246 217 182 172 150 136 122 125 130 138 146 151 145 143 142 142 144 145 149 153 159 161 162 164 172 178 173 169 172 177 184 187 196 213 229 231 252 258 272 284 290 296 305 308
239 225 195 196 189 155 137 133 133 135 142 146 144 145 145 144 146 148 148 153 160 166 167 166 164 166 167 169 176 185 192 202 217 228 241 261 262 286 291 310 324 303 308 309
259 202 218 166 160 157 148 143 143 143 140 142 146 145 146 145 146 151 152 155 159 162 166 168 166 166 169 174 181 190 198 210 223 230 239 259 265 255 232 249 252 249 259 278
255 190 152 140 149 156 151 144 145 143 142 143 143 146 147 145 148 154 157 160 164 169 170 170 170 172 176 184 191 204 216 224 240 245 247 251 263 276 276 238 232 237 240 244
171 160 155 159 154 151 144 141 139 136 137 138 141 146 146 148 153 159 161 162 168 172 174 175 178 181 185 190 197 209 222 217 237 246 255 263 271 277 280 284 277 267 234 229
188 188 164 153 150 149 150 150 148 144 142 141 146 150 154 155 157 158 160 164 170 176 181 183 184 188 195 198 201 213 228 231 236 256 260 262 267 271 275 281 284 287 289 235
176 162 158 159 158 159 161 161 157 152 150 150 153 156 158 157 157 159 166 172 179 184 185 189 191 192 197 201 208 217 227 237 250 260 260 260 262 270 276 279 279 283 287 294
170 168 167 165 165 166 165 164 160 156 154 154 155 156 157 158 160 166 175 180 188 193 195 199 203 205 205 208 224 234 230 210 214 242 254 264 271 276 279 281 283 283 285 301
176 173 172 168 164 162 163 163 162 160 159 156 156 160 165 168 171 172 179 181 191 200 205 207 208 213 216 220 230 249 248 245 244 255 265 271 280 279 278 277 279 283 290 280
170 167 165 162 161 161 161 160 160 159 158 159 162 165 170 173 173 176 181 188 198 205 204 202 193 218 223 224 236 237 245 250 255 260 266 263 261 269 275 280 284 289 294 299
167 165 163 163 163 162 159 158 158 157 163 165 167 170 174 176 178 183 191 203 210 212 194 192 202 215 222 220 233 246 247 253 260 264 267 271 276 281 283 286 289 291 289 288
166 165 166 165 163 164 162 162 162 166 170 176 179 180 178 179 186 190 202 207 191 196 198 188 214 221 221 217 223 247 252 256 263 269 276 281 286 289 292 294 295 295 293 292
163 163 164 164 166 166 168 171 172 173 177 184 187 185 184 187 193 197 206 217 191 172 209 211 213 206 218 237 241 248 254 260 269 274 277 280 282 285 289 294 296 296 296 297
163 164 164 167 170 169 169 173 173 176 181 186 186 187 191 195 198 201 198 187 194 178 217 228 177 154 199 236 248 254 260 264 268 272 276 277 278 282 287 292 295 297 301 303
163 164 166 165 166 168 171 173 171 177 183 189 187 188 193 194 196 207 206 161 172 184 224 179 167 189 221 243 250 254 257 259 264 269 274 280 283 286 292 294 294 296 297 299
164 164 165 168 173 174 171 173 174 180 186 186 185 185 195 201 200 195 192 181 170 196 218 186 189 205 227 243 250 259 263 268 275 284 287 287 288 290 290 290 292 293 294 295
164 170 168 177 175 172 170 175 179 178 183 183 180 180 186 187 191 193 198 197 193 208 227 212 198 206 228 241 249 258 265 259 250 257 269 277 285 290 293 295 295 294 295 297
168 167 171 178 177 178 176 178 180 180 182 186 185 182 183 185 189 196 205 206 199 210 223 224 225 229 237 244 250 255 261 266 267 270 274 278 284 290 294 294 295 297 299 303